Currently 80°F in Pinon Hills, California, USA
80°F
94°F / 69°F
5 mph W
0.00"
Saturday, August 18, 2018 10:20 PM PDT

Pinon Hills, California Climate Summary
Typical May Day

Normal High:    75.5°F (24.2°C)
Normal Low:    51.8°F (11.0°C)
Average:    63.5°F (17.5°C)

Hour    Temperature    Wind Speed    Humidity
12:00 AM    58°F (14°C)    3 mph    45%
1:00 AM    57°F (14°C)    3 mph    46%
2:00 AM    56°F (13°C)    3 mph    47%
3:00 AM    55°F (13°C)    3 mph    48%
4:00 AM    55°F (13°C)    3 mph    48%
5:00 AM    54°F (12°C)    3 mph    49%
6:00 AM    53°F (12°C)    3 mph    50%
7:00 AM    58°F (14°C)    2 mph    46%
8:00 AM    62°F (17°C)    3 mph    41%
9:00 AM    65°F (18°C)    4 mph    38%
10:00 AM    67°F (19°C)    4 mph    34%
11:00 AM    69°F (21°C)    4 mph    31%
12:00 PM    71°F (22°C)    5 mph    29%
1:00 PM    73°F (23°C)    5 mph    26%
2:00 PM    73°F (23°C)    5 mph    25%
3:00 PM    74°F (23°C)    6 mph    24%
4:00 PM    74°F (23°C)    6 mph    25%
5:00 PM    73°F (23°C)    6 mph    26%
6:00 PM    71°F (22°C)    6 mph    28%
7:00 PM    68°F (20°C)    6 mph    31%
8:00 PM    64°F (18°C)    4 mph    36%
9:00 PM    61°F (16°C)    3 mph    40%
10:00 PM    60°F (15°C)    3 mph    43%
11:00 PM    58°F (15°C)    3 mph    45%
 

The Pinon Hills, California weather pages are a service of WeatherCurrents.
Copyright ©Sat Aug 18 22:21:20 PDT 2018  WeatherCurrents. All rights reserved. - Submit questions and comments - Privacy Policy